アトラス彗星

C/2019 K8 ( ATLAS )

English version
Home page
Updated on December 9, 2019

---------------------------------------------------------------------

・ プロフィール

発見日 2019年5月27日
発見光度 17.9等
発見者 Asteroid Terrestrial-Impact Last Alert System (ATLAS) search program

・ 写真集

・ 軌道要素

Epoch 2019 July 16.0 TT = JDT 2458680.5
T 2019 July 21.21301 TT                                 Williams
q   3.1950680            (2000.0)            P               Q
z  +0.0006908      Peri.   85.35142     -0.02318120     -0.36220227
 +/-0.0000167      Node   291.04691     -0.48369758     +0.81976965
e   0.9977928      Incl.   93.22225     +0.87492816     +0.44360707
From 440 observations 2019 May 27-Aug. 19, mean residual 0".5.

・ 光度変化

        m1 = 10.5 + 5 logΔ + 10.0 log r

---------------------------------------------------------------------

軌道要素はM.P.E.C. 2019-Q135に掲載されたものです。
光度グラフはComet for Windowsで作成したものです。

---------------------------------------------------------------------

Copyright(C) Seiichi Yoshida (comet@aerith.net). All rights reserved.